Regional Weather Roundup
Issued by NWS Wakefield, VA

Home | Current Version | Previous Version | Graphics & Text | Print | Product List | Glossary On
Versions: 1 2 3 4 5 6 7 8 9 10 11 12 13 14 15 16 17 18 19 20 21 22 23 24 25 26 27 28 29 30 31 32 33 34 35 36 37 38 39 40 41 42 43 44 45 46 47 48 49 50
000
ASUS41 KAKQ 241510
RWRAKQ

REGIONAL WEATHER ROUNDUP
NATIONAL WEATHER SERVICE WAKEFIELD VA
1100 AM EDT THU JUL 24 2014

Note: "fair" indicates few or no clouds below 12,000 feet with no
significant weather and/or obstructions to visibility. * = Denotes
station may not report precipitation (e.g., rain,snow,etc.),
thunder or fog.

VAZ042-051-052>054-056-241600-
NORTHERN VIRGINIA

CITY           SKY/WX    TMP DP  RH WIND       PRES   REMARKS
WASH NATIONAL  CLOUDY    77  63  61 N12       29.93S
DULLES         CLOUDY    71  60  68 N7        29.94S
FORT BELVOIR   LGT RAIN  72  68  88 N1        29.94R
QUANTICO       CLOUDY    75  68  78 N10       29.93R
FREDERICKSBRG* CLOUDY    77  72  85 N7        29.91S
STAFFORD*      LGT RAIN  74  74 100 NW8       29.96S
WARRENTON      CLOUDY    74  72  92 N5        29.94R
CULPEPER*      RAIN     N/A N/A N/A N5        29.94S
MANASSAS*      NOT AVBL
LEESBURG*      CLOUDY    72  64  78 N8        29.95S
WINCHESTER     CLOUDY    70  63  78 N5        29.96S
$$

VAZ048-049-060>072-079>083-241600-
CENTRAL AND SOUTH CENTRAL VIRGINIA...AND NORTH CENTRAL NORTH CAROLINA

CITY           SKY/WX    TMP DP  RH WIND       PRES   REMARKS
RICHMOND       CLOUDY    78  72  81 CALM      29.91R
CHESTERFIELD*  CLOUDY    75  64  69 CALM      29.93R
HANOVER        CLOUDY    77  72  84 VRB5      29.93S HAZE
TAPPAHANNOCK*  DRIZZLE   75  71  88 N3        29.91F
CHARLOTTSVILLE CLOUDY    75  69  81 E5        29.93S
ORANGE*        CLOUDY    72  64  78 N6        29.96R
LOUISA*        PTSUNNY   75  70  83 N7        29.92F
FARMVILLE*     PTSUNNY   79  73  83 CALM      29.91S
SOUTH HILL*    LGT RAIN  75  75 100 CALM      29.98R
ROANOKE RAPIDS CLOUDY    81  70  69 NE7       29.91S
RALEIGH        PTSUNNY   79  70  74 NE5       29.93S
$$

VAZ088>098-241600-
SOUTHEAST VIRGINIA

CITY           SKY/WX    TMP DP  RH WIND       PRES   REMARKS
NORFOLK        RAIN      74  71  91 NE9       29.87F FOG
VIRGINIA BEACH TSTM      75  73  93 NE12      29.87S FOG
NORFOLK NAVAL  LGT RAIN  76  72  87 E7        29.89F
WEST POINT*    CLOUDY    77  74  90 NW3       29.90F
NEWPORT NEWS   CLOUDY    81  73  76 E3        29.88F
LANGLEY AFB    CLOUDY    76  76 100 NE3       29.87F FOG
FORT EUSTIS    CLOUDY    77  77 100 W2        29.87F
WILLIAMSBURG*  CLOUDY    79  75  89 CALM      29.90F
FRANKLIN*      PTSUNNY   73  72  94 W6        29.91R
WAKEFIELD      LGT RAIN  74  71  91 SW3       29.90S FOG
$$

VAZ020-022-025-037-045-241600-
WESTERN AND SOUTHWEST VIRGINIA

CITY           SKY/WX    TMP DP  RH WIND       PRES   REMARKS
STAUNTON*      CLOUDY    72  66  82 E10       29.98S
HOT SPRINGS VA CLOUDY    64  61  90 CALM      30.08S FOG
LYNCHBURG      PTSUNNY   75  68  78 CALM      29.96S
DANVILLE       LGT RAIN  75  69  81 E3        29.94S
MARTINSVILLE   PTSUNNY   80  69  69 CALM      29.97F
ROANOKE        PTSUNNY   79  66  65 SE5       29.96F
BLACKSBURG     MOSUNNY   79  68  69 SW3         N/A
DUBLIN*        PTSUNNY   78  67  68 W5        30.01S
MARION*        CLOUDY    73  68  86 SW7       30.05F
HILLSVILLE*    CLOUDY    74  65  74 SW6       30.04S
RICHLANDS*     CLOUDY    75  68  78 W6        30.04F
WISE*          PTSUNNY   73  68  83 SW8       30.05S
ABINGDON*      CLOUDY    76  69  79 W8        30.02F
$$

MDZ021>025-VAZ099-100-241600-
SOUTHERN MARYLAND AND THE DELMARVA PENINSULA

CITY           SKY/WX    TMP DP  RH WIND       PRES   REMARKS
PATUXENT RIVER LGT RAIN  73  67  81 E5        29.90R
BAY BRIDGE APT   N/A     73  66  78 N6        29.91S
LEONARDTOWN    CLOUDY    72  68  88 CALM      29.92S
DOVER          CLOUDY    73  67  80 NW13      29.88R
GEORGETOWN     LGT RAIN  74  69  85 VRB6      29.90R
EASTON         CLOUDY    73  72  94 N6        29.94R
CAMBRIDGE      CLOUDY    73  66  78 N6        29.90R
SALISBURY      NOT AVBL
OCEAN CITY     LGT RAIN  74  70  87 CALM      29.90R FOG
WALLOPS ISLAND LGT RAIN  74  72  93 N5        29.91R FOG
ACCOMACK*      RAIN      73  72  94 N3        29.89R
$$

NCZ012>017-030>032-241600-
EASTERN NORTH CAROLINA

CITY           SKY/WX    TMP DP  RH WIND       PRES   REMARKS
ELIZABETH CITY PTSUNNY   84  75  74 W14       29.88S
AHOSKIE*       MOSUNNY   80  69  70 N7        29.90F
EDENTON*       PTSUNNY   83  73  72 NW6       29.89F
CURRITUCK*     CLOUDY    84  72  67 W14G21    29.89S
KILL DEVIL HLS MOSUNNY   83  75  76 W12G21    29.87F
MANTEO         NOT AVBL
CAPE HATTERAS  SUNNY     85  77  77 SW12      29.91S HX  95
GOLDSBORO      MOSUNNY   84  79  84 W7        29.87F THUNDER HX  96
WASHINGTON     MOSUNNY   84  76  76 SW10      29.89F
GREENVILLE     RAIN      79  77  94 W3        29.92F
NEW BERN       MOSUNNY   89  76  65 SW12      29.91F HX 100
WILMINGTON     SUNNY     89  73  59 SW13      29.92F HX  97
$$

VAZ048-241600-
ELSEWHERE

CITY           SKY/WX    TMP DP  RH WIND       PRES   REMARKS
HARRISBURG PA  PTSUNNY   74  59  59 NW7       29.94R
BALTIMORE      CLOUDY    73  63  70 VRB6      29.92R
ANNAPOLIS      CLOUDY    74  65  73 NW8       29.92R
ANDREWS AFB    CLOUDY    73  66  78 N9        29.92S
WILMINGTON DE  CLOUDY    74  63  68 N12       29.91R
PHILADELPHIA   CLOUDY    75  58  55 N13       29.90R
WILDWOOD NJ*   CLOUDY    72  64  78 N6        29.89S
ATLANTIC CITY  CLOUDY    75  65  70 N8        29.88R
HENDERSON NC   LGT RAIN  74  71  89 NE3       29.94S
GREENSBORO     CLOUDY    78  72  81 CALM      29.94S
ROCKY MOUNT    MOSUNNY   81  72  74 N7        29.90F
FAYETTEVILLE   MOSUNNY   86  74  67 SW12      29.91S
CHARLOTTE      CLOUDY    82  70  66 W5        29.96S
$$

VAZ100-241600-
MARINE

STATION/POSITION TIME  TEMP    WIND        PRES    WAVE   SWELL
                       AIR SEA DIR/SP/G            HT/PER HT/PER
                 (UTC) (F)     (DEG/KT/KT) (MB)    (FT/S) (FT/S)
44066 TX TWR #4  1500   72 74  350/ 10/ 12 1010.1R   3/ 5   2/ 5
CAPE MAY NJ      1500   73 77  350/  5/  8 1011.5R
LEWES DE         1500   72 72  340/  3/  7 1011.9S
15NM E FENWICK I 1500   73 76              1012.0R   2/ 6
OCEAN-CITY-INLET 1500   72 69  360/  4/  5 1011.9R
WACHAPREAGUE VA  1500   74 81  360/  2/  2 1012.0S
THOMAS POINT MD  1500   73 79  360/ 13/ 15 1013.3R
GOOSES REEF MD   1500   75      40/  8/ 12 1013.0S
COVE POINT MD    1500   74      60/  7/  9 1012.6R
SOLOMONS ISLAND  1500      81                N/A
BISHOPS HEAD MD  1500   72 80   40/  8/ 11 1012.2R
PINEY POINT MD   1500           70/  5/  7   N/A
POTOMAC MD       1500   74      40/ 10/ 12 1011.9S
CAMBRIDGE MD     1500   73 80  360/  8/  9 1012.3R
LEWISETTA VA     1500   74 81   30/  6/ 11 1012.2F
RAPPAHANNOCK LGT 1500           20/ 12/ 13 1012.1F
STINGRAY PT      1500   77     340/ 10/ 12 1012.6F
YORK RVR RNG VA  1500   76      30/  5/  6 1011.2F
YORKTOWN VA      1500   77 81   80/  2/  4 1011.4F
JAMESTOWN VA     1500   74      40/  2/  4   N/A
DOMINION TERM VA 1500   75      60/  2/  4 1012.0F
KIPTOPEKE VA     1500      82  220/  1/  3   N/A
CHES BAY BRIDGE  1500   74 79   50/  3/  4 1011.5F
CAPE HENRY VA    1500   73     340/  7/  9 1011.8R
WILLOUBY STN VA  1500           60/  2/  3 1011.2F
S CRANEY ISL VA  1500          340/  6/  8 1011.8F
CAPE HENRY BUOY  1500      77                N/A     3/ 6
1ST LANDING BUOY 1500   74      10/ 14/ 16 1012.3R
CAPE CHARLES BUO 1500      74                N/A     3/ 3
OFFSHORE WE BUOY 1500      78                N/A     3/ 6
64NM E OF VA BCH 1500   78 78  260/ 14/ 16 1010.7F   4/ 7   3/ 7
DUCK PIER NC     1500   82 68  260/ 11/ 17 1010.8F
44056 DUCK FRF   1500                        N/A     1/ 9
OREGON INLET NC  1500   82 83  230/ 14/ 15 1011.7F
HATTERAS NC      1500   84 81  220/  6/ 12 1013.3F
DIAMOND SHLS NC  1500          VRB 17/ 21  1012.7R   4/ 5   2/ 8
CAPE LOOKOUT NC  1400   83     240/ 11/ 15 1013.4S
$$



USA.gov is the U.S. government's official web portal to all federal, state and local government web resources and services.